Vertical_Velocity
-2 -0 -1 -2 3 -2 -2 -0 3 0 -5 -2 -2 -1 0 1 2 5 2 -2 -0 -2 3 5 2 1 1 2 0 4 1 -1 1 4 -4 -1 0 -2 -0 -0 -1 1 -1 1 1 -1 -0
-0 -0 0 -1 -1 1 -1 -2 -0 1 2 -3 -2 -2 0 1 1 0 1 6 2 0 4 2 1 1 1 -3 2 2 -1 1 1 -2 -1 -1 -1 -0 -2 -1 1 -0 -1 1 -1 -1 -1
-1 -2 1 -0 0 -1 1 -1 -0 0 1 0 -1 -0 0 0 1 1 1 -0 -0 3 2 1 -0 -1 -2 -1 2 -0 -0 0 0 -2 1 -2 1 -1 -1 0 1 -0 -1 -0 -0 -1 -1
2 -0 -1 1 1 1 -0 -1 -3 1 1 -1 -0 -1 0 -0 -2 -1 -1 2 3 2 0 -1 -1 -1 -1 1 0 1 -0 1 -1 3 -2 1 1 -2 1 -1 0 -1 -1 1 -1 -1 -0
1 0 1 -1 -0 1 1 1 1 0 -1 0 -1 0 -1 1 2 1 -0 1 2 2 1 1 1 -0 -0 1 2 -1 -0 1 1 -1 -0 2 -2 1 -1 -0 -1 -0 2 -0 -1 -1 -0
-2 0 1 0 -1 -0 0 1 0 3 2 1 1 -0 -0 -3 -1 1 2 1 -0 -0 0 -0 0 1 1 1 1 -1 1 0 -1 -1 1 -2 -0 0 0 0 1 -0 -0 -0 1 -2 -1
1 0 -3 2 -1 -0 -1 2 3 -0 2 1 1 1 2 1 2 2 1 1 1 1 -1 -0 -1 0 0 -0 -1 0 1 0 -2 2 -1 -1 3 -1 -1 -2 -1 -1 -0 1 -0 -2 -2
-1 -1 1 -3 -1 -1 -1 0 2 2 1 -1 1 0 1 1 0 -1 0 -0 0 1 0 1 -0 0 0 0 0 1 -1 -2 0 -1 -1 2 -1 -1 -0 -1 -1 -1 -1 -0 -1 -3 -2
1 1 -1 -1 -2 -2 1 0 2 2 1 1 -1 -0 -1 2 2 0 -2 -2 -0 0 0 1 -0 0 0 1 0 -1 -0 0 -0 1 1 1 -1 -1 -2 0 -1 -1 1 -1 -0 -2 -1
1 -1 1 0 -3 -4 -5 1 -0 2 2 1 -0 0 -1 1 0 -0 1 2 0 -1 -1 -1 1 1 1 1 -1 -0 -1 -0 1 0 -1 -1 -1 -3 1 -0 -1 1 -1 -1 -2 -0 5
-2 2 -2 2 1 -1 -3 -5 0 -2 1 2 1 1 -0 -0 1 0 1 1 2 2 -1 1 1 0 1 1 1 0 0 -0 0 -1 -1 -1 -1 1 -1 -2 -1 -2 -2 -3 -1 2 1
1 -2 4 -3 1 1 -1 -1 -3 -2 -3 -0 0 0 2 1 -1 1 0 -1 -0 1 -2 -1 -1 -2 -1 0 1 1 0 1 -0 -1 -1 -2 -1 -1 -2 -1 -2 -1 -1 -1 -0 1 3
-0 -1 -1 -1 0 -1 0 -2 -1 -1 -0 -5 0 -1 -1 1 2 2 0 1 1 0 -1 -1 1 1 1 1 -0 -1 -0 0 -1 -1 -1 -1 -1 -1 -0 -1 -2 -1 -1 1 1 3 2
-2 3 -4 2 -5 0 0 2 -2 0 -1 1 -2 0 -1 -2 2 1 2 0 0 -1 0 -0 -1 -0 -0 0 -1 -2 -2 -1 -0 1 1 1 -1 1 1 2 2 1 0 2 -1 0 1
-1 -4 -2 -3 -1 -2 -0 -2 6 -5 -0 1 -3 -3 -1 0 -3 -0 2 3 -0 -2 -3 -1 -0 -1 -3 -3 -1 -0 -2 -2 -1 -3 -2 -0 -0 0 -0 -1 -1 -0 0 0 1 -1 1
2 -1 -0 -2 -3 -2 -3 -0 -3 4 -2 -3 -1 -2 -3 -2 0 1 1 -3 -1 -1 -1 -1 -5 -3 1 1 -1 -2 -1 -1 -2 -2 -1 -1 -0 -1 0 -0 -1 0 -0 -1 -1 1 -1
-2 1 -3 1 -0 -3 -1 -2 -3 0 1 0 1 1 -2 -2 -4 -2 1 -0 -1 -1 1 0 -2 2 1 -2 -3 -2 -2 -3 -1 -1 -1 -1 -2 -3 -0 -2 -1 -1 -1 -2 -1 -1 2
0 -2 0 -1 -2 1 -4 1 -1 -4 -0 -0 -0 -3 2 3 -0 -2 -1 3 -1 -2 -2 -1 3 4 1 0 -0 2 0 -0 0 0 -2 -0 -0 -2 -3 -3 -1 -2 -3 -2 -3 -1 -3
-1 -0 1 -2 -1 -0 0 -3 0 1 -1 -1 -1 -2 3 -3 -3 -2 0 -1 0 9 -2 -9 -5 -0 3 3 0 -4 -4 -3 -5 -5 -6 -4 -1 -1 -2 -2 -2 2 2 4 4 5 -6
-1 -2 -0 1 2 0 3 -2 -1 1 1 2 -1 -2 -0 4 -3 -0 -1 -1 -2 -2 -6 7 0 -10 -8 -1 4 4 8 6 6 6 4 3 -1 -3 -7 10 3 -2 1 2 4 3 -10
-1 0 -2 2 3 -0 3 2 0 -2 1 1 1 -1 -1 -4 5 -0 2 -8 -2 -1 4 -6 -4 4 11 -4 -6 -9 -5 -2 -1 -4 -1 3 -0 2 3 4 0 -2 1 -2 -3 -4 4
-2 0 2 -1 2 2 -2 1 2 1 2 -7 8 0 -4 6 -5 3 -2 4 2 3 -0 -0 3 -1 0 2 12 1 -1 -4 -4 -3 2 1 -5 -1 -3 -3 -1 3 -4 -2 3 6 -2
-3 1 2 -1 1 7 -2 -1 2 3 -1 1 -0 1 5 -6 2 0 -4 -3 2 -0 -4 2 2 -1 2 2 0 2 0 2 5 3 3 2 -1 4 -4 -0 -2 -10 -2 2 2 2 2
-0 -7 -2 -0 -3 4 4 4 -3 -0 2 3 2 0 -2 -2 1 1 -5 2 1 1 4 -1 -2 2 -1 -4 -0 -1 -3 -4 -0 2 4 3 6 4 -2 -1 2 -0 -0 -3 -3 -3 0
4 -0 0 -2 -0 -0 1 1 5 -4 2 2 4 0 -0 -6 0 0 3 -0 -3 -0 -2 -3 -2 2 4 2 -3 -3 -3 -1 -3 1 0 -1 6 0 -3 -0 -9 -4 -2 1 -3 -5 0
6 4 7 4 -1 1 -4 2 -2 3 0 -3 2 2 3 4 -4 -1 1 1 0 -0 -1 -2 1 2 1 -3 1 1 -1 -2 1 -2 -2 1 4 4 5 2 0 0 -3 -1 -0 5 -2
-6 -8 -2 -1 -5 -5 -1 18 -1 2 -1 1 2 0 -2 0 1 3 1 -1 1 2 0 0 1 1 1 2 2 -1 -3 -3 -2 -0 -3 -0 0 -5 1 1 -6 -5 4 6 6 -1 3
-4 -7 -4 -5 3 1 -5 1 10 8 6 1 7 1 2 -1 0 -1 -1 1 4 2 1 1 2 -5 0 1 -1 -2 1 -1 -1 -1 -2 1 0 -5 2 5 -7 -1 -1 2 -5 5 -6
-1 -6 -11 2 -3 1 7 1 0 -3 7 10 5 -0 1 -0 -1 -1 -0 0 -1 -1 -2 -2 -1 2 3 -1 1 -0 -2 -0 -1 -2 3 -5 -5 -4 -7 5 -0 -1 -3 -3 -3 -6 0
Height
3137 3133 3129 3126 3122 3120 3116 3113 3111 3108 3106 3104 3102 3100 3100 3099 3100 3102 3103 3106 3108 3111 3115 3119 3121 3125 3130 3135 3136 3138 3142 3144 3146 3149 3151 3152 3154 3155 3156 3156 3156 3155 3156 3156 3156 3156 3155
3141 3137 3133 3130 3127 3123 3121 3118 3116 3113 3112 3110 3109 3108 3107 3106 3107 3108 3109 3111 3114 3116 3119 3121 3124 3128 3133 3137 3137 3139 3142 3145 3146 3148 3149 3151 3152 3153 3154 3154 3154 3154 3154 3154 3154 3154 3153
3145 3141 3138 3134 3131 3128 3124 3122 3120 3118 3116 3115 3114 3114 3113 3113 3113 3114 3115 3117 3118 3120 3122 3125 3128 3132 3135 3138 3138 3140 3142 3144 3145 3147 3148 3149 3150 3152 3152 3152 3152 3152 3153 3152 3151 3151 3151
3148 3145 3142 3138 3135 3132 3129 3126 3124 3123 3122 3120 3119 3118 3117 3117 3118 3118 3119 3120 3122 3124 3126 3128 3131 3134 3136 3137 3138 3140 3142 3143 3145 3146 3147 3148 3149 3150 3151 3151 3151 3151 3152 3150 3149 3149 3149
3152 3148 3145 3142 3139 3136 3132 3130 3127 3125 3124 3124 3123 3122 3122 3122 3122 3123 3123 3123 3124 3126 3128 3131 3134 3135 3137 3138 3139 3140 3141 3142 3144 3145 3145 3147 3148 3149 3149 3149 3150 3150 3150 3149 3148 3147 3146
3155 3152 3148 3145 3143 3139 3136 3133 3130 3127 3126 3125 3125 3125 3124 3125 3125 3125 3125 3126 3127 3129 3131 3133 3135 3139 3138 3138 3138 3140 3140 3142 3143 3144 3145 3145 3146 3147 3147 3148 3149 3148 3147 3147 3146 3145 3143
3158 3154 3151 3148 3145 3143 3140 3137 3134 3131 3128 3126 3126 3126 3126 3126 3126 3125 3126 3128 3133 3135 3134 3135 3136 3136 3137 3138 3139 3140 3140 3142 3142 3143 3143 3144 3145 3145 3145 3145 3146 3146 3146 3145 3143 3142 3141
3159 3156 3153 3150 3147 3145 3143 3140 3137 3134 3132 3129 3128 3127 3127 3128 3129 3129 3130 3131 3132 3135 3135 3135 3136 3137 3137 3138 3139 3139 3141 3143 3142 3142 3143 3144 3142 3143 3143 3143 3144 3144 3144 3143 3141 3140 3138
3157 3156 3154 3151 3150 3147 3145 3143 3140 3137 3135 3133 3131 3130 3130 3130 3130 3131 3132 3133 3134 3135 3136 3138 3137 3137 3138 3139 3138 3139 3140 3140 3140 3141 3141 3140 3142 3142 3142 3142 3142 3142 3142 3141 3140 3136 3133
3157 3155 3154 3152 3150 3147 3146 3144 3143 3140 3137 3135 3134 3132 3131 3132 3134 3133 3134 3134 3135 3136 3137 3139 3138 3138 3138 3138 3139 3139 3138 3140 3139 3139 3139 3140 3140 3141 3140 3140 3141 3141 3140 3138 3136 3135 3134
3157 3154 3153 3152 3150 3148 3145 3144 3142 3141 3139 3137 3136 3134 3134 3133 3134 3134 3135 3135 3136 3137 3137 3139 3137 3136 3136 3138 3138 3138 3138 3137 3137 3137 3140 3140 3139 3139 3138 3140 3140 3140 3137 3135 3133 3131 3129
3155 3153 3151 3149 3149 3148 3146 3143 3142 3141 3139 3139 3137 3136 3135 3135 3134 3134 3134 3135 3136 3138 3134 3136 3136 3136 3137 3136 3137 3136 3137 3137 3137 3137 3137 3138 3137 3137 3137 3138 3137 3136 3134 3131 3129 3128 3128
3152 3151 3149 3148 3146 3145 3144 3144 3141 3140 3139 3138 3137 3136 3135 3135 3135 3134 3134 3134 3136 3134 3135 3136 3135 3135 3135 3135 3136 3136 3136 3136 3137 3137 3136 3136 3135 3135 3136 3136 3135 3134 3132 3131 3130 3127 3122
3147 3147 3145 3145 3143 3142 3141 3140 3140 3138 3138 3137 3136 3136 3134 3135 3134 3133 3133 3135 3133 3132 3132 3133 3133 3134 3134 3134 3134 3135 3135 3134 3134 3134 3134 3134 3134 3133 3133 3134 3133 3132 3132 3131 3128 3122 3120
3143 3142 3141 3140 3139 3138 3138 3137 3136 3136 3134 3135 3135 3134 3133 3133 3133 3133 3134 3132 3131 3131 3132 3132 3132 3131 3132 3133 3134 3133 3132 3132 3132 3133 3135 3133 3133 3131 3131 3131 3132 3130 3130 3130 3127 3124 3122
3136 3136 3136 3134 3135 3134 3133 3133 3132 3131 3131 3130 3131 3131 3131 3131 3130 3130 3132 3130 3130 3130 3131 3131 3131 3131 3131 3131 3132 3131 3130 3130 3130 3130 3130 3130 3131 3129 3129 3129 3129 3128 3129 3128 3127 3125 3118
3129 3129 3130 3130 3128 3128 3128 3129 3128 3128 3127 3127 3126 3127 3127 3128 3129 3128 3128 3127 3127 3128 3128 3130 3129 3129 3129 3129 3129 3129 3128 3128 3127 3127 3128 3128 3128 3128 3127 3125 3125 3126 3125 3126 3126 3124 3119
3122 3122 3123 3122 3122 3123 3123 3122 3123 3123 3123 3122 3122 3123 3122 3123 3125 3124 3124 3124 3124 3123 3125 3125 3126 3125 3125 3126 3126 3126 3125 3124 3123 3123 3124 3124 3123 3122 3122 3120 3120 3119 3119 3119 3121 3120 3118
3113 3113 3114 3115 3116 3116 3118 3116 3117 3118 3118 3118 3117 3118 3118 3118 3119 3119 3120 3120 3119 3118 3118 3120 3122 3122 3122 3123 3123 3120 3120 3120 3120 3121 3120 3121 3121 3121 3118 3118 3116 3115 3114 3114 3114 3113 3107
3105 3106 3106 3107 3108 3109 3110 3112 3111 3110 3112 3113 3114 3113 3114 3113 3112 3114 3115 3115 3115 3115 3115 3115 3115 3116 3119 3120 3120 3118 3117 3117 3116 3117 3116 3115 3114 3114 3114 3114 3113 3112 3111 3111 3110 3107 3099
3095 3097 3098 3099 3100 3102 3104 3104 3105 3105 3105 3108 3107 3107 3107 3107 3108 3108 3109 3110 3110 3110 3110 3110 3111 3111 3110 3109 3111 3113 3114 3114 3113 3113 3113 3112 3108 3107 3104 3104 3101 3099 3099 3099 3095 3094 3094
3086 3087 3089 3091 3093 3094 3095 3097 3098 3097 3099 3101 3102 3101 3102 3102 3102 3103 3103 3103 3103 3104 3105 3105 3104 3106 3106 3106 3106 3104 3105 3106 3107 3107 3106 3105 3102 3099 3095 3096 3094 3089 3088 3086 3086 3085 3081
3076 3078 3080 3082 3084 3086 3087 3088 3090 3091 3092 3091 3093 3094 3094 3095 3096 3097 3097 3098 3097 3096 3098 3099 3099 3099 3100 3100 3099 3099 3100 3101 3099 3100 3099 3099 3098 3095 3088 3087 3085 3078 3074 3074 3074 3074 3075
3066 3067 3070 3072 3075 3077 3078 3080 3081 3083 3084 3085 3085 3086 3087 3087 3088 3089 3089 3091 3091 3092 3092 3092 3093 3093 3093 3094 3094 3093 3093 3094 3093 3092 3092 3091 3092 3092 3086 3084 3080 3070 3068 3068 3069 3068 3068
3056 3058 3060 3061 3064 3067 3070 3071 3072 3074 3075 3077 3078 3079 3078 3078 3081 3082 3082 3082 3083 3085 3086 3086 3087 3087 3087 3087 3087 3087 3086 3085 3083 3082 3081 3083 3086 3087 3085 3081 3070 3067 3064 3064 3063 3061 3061
3045 3047 3050 3052 3054 3057 3061 3064 3065 3066 3067 3069 3069 3070 3071 3071 3072 3074 3075 3076 3076 3076 3078 3079 3079 3080 3080 3080 3082 3080 3079 3078 3077 3076 3077 3077 3079 3082 3080 3079 3069 3062 3062 3062 3061 3058 3052
3036 3038 3040 3043 3044 3046 3049 3053 3056 3057 3059 3060 3060 3061 3062 3064 3065 3066 3067 3068 3069 3070 3071 3072 3073 3073 3074 3073 3072 3073 3074 3073 3072 3070 3071 3072 3072 3072 3074 3072 3063 3058 3058 3057 3059 3056 3048
3030 3031 3035 3036 3037 3040 3040 3042 3045 3048 3050 3052 3052 3053 3055 3055 3057 3059 3060 3061 3062 3063 3065 3067 3068 3066 3066 3067 3067 3066 3065 3064 3064 3064 3065 3067 3068 3067 3068 3067 3062 3054 3054 3055 3050 3046 3042
3024 3026 3027 3030 3031 3032 3033 3034 3035 3038 3041 3042 3044 3045 3047 3048 3050 3051 3052 3054 3055 3057 3059 3059 3061 3061 3060 3060 3060 3059 3059 3058 3058 3059 3059 3061 3060 3060 3062 3057 3054 3051 3049 3045 3039 3035 3030